Year,Month,Day,Hour,Minute,Value (Times are PST for temperature in C)
2012,05,26,00,00,13.10
2012,05,26,00,01,13.10
2012,05,26,00,02,13.00
2012,05,26,00,03,13.00
2012,05,26,00,04,12.90
2012,05,26,00,05,12.90
2012,05,26,00,06,12.80
2012,05,26,00,07,12.80
2012,05,26,00,08,12.80
2012,05,26,00,09,12.80
2012,05,26,00,10,12.70
2012,05,26,00,11,12.70
2012,05,26,00,12,12.70
2012,05,26,00,13,12.60
2012,05,26,00,14,12.60
2012,05,26,00,15,12.60
2012,05,26,00,16,12.60
2012,05,26,00,17,12.50
2012,05,26,00,18,12.50
2012,05,26,00,19,12.50
2012,05,26,00,20,12.40
2012,05,26,00,21,12.40
2012,05,26,00,22,12.30
2012,05,26,00,23,12.30
2012,05,26,00,24,12.30
2012,05,26,00,25,12.30
2012,05,26,00,26,12.20
2012,05,26,00,27,12.20
2012,05,26,00,28,12.20
2012,05,26,00,29,12.10
2012,05,26,00,30,12.10
2012,05,26,00,31,12.10
2012,05,26,00,32,12.10
2012,05,26,00,33,12.10
2012,05,26,00,34,12.00
2012,05,26,00,35,12.00
2012,05,26,00,36,12.00
2012,05,26,00,37,12.00
2012,05,26,00,38,12.00
2012,05,26,00,39,11.90
2012,05,26,00,40,11.90
2012,05,26,00,41,11.90
2012,05,26,00,42,11.90
2012,05,26,00,43,11.80
2012,05,26,00,44,11.80
2012,05,26,00,45,11.80
2012,05,26,00,46,11.80
2012,05,26,00,47,11.80
2012,05,26,00,48,11.70
2012,05,26,00,49,11.70
2012,05,26,00,50,11.60
2012,05,26,00,51,11.60
2012,05,26,00,52,11.60
2012,05,26,00,53,11.60
2012,05,26,00,54,11.50
2012,05,26,00,55,11.40
2012,05,26,00,56,11.40
2012,05,26,00,57,11.40
2012,05,26,00,58,11.40
2012,05,26,00,59,11.40
2012,05,26,01,00,11.40
2012,05,26,01,01,11.40
2012,05,26,01,02,11.30
2012,05,26,01,03,11.30
2012,05,26,01,04,11.30
2012,05,26,01,05,11.30
2012,05,26,01,06,11.30
2012,05,26,01,07,11.20
2012,05,26,01,08,11.20
2012,05,26,01,09,11.20
2012,05,26,01,10,11.10
2012,05,26,01,11,11.10
2012,05,26,01,12,11.10
2012,05,26,01,13,11.10
2012,05,26,01,14,11.10
2012,05,26,01,15,11.10
2012,05,26,01,16,11.10
2012,05,26,01,17,11.10
2012,05,26,01,18,11.10
2012,05,26,01,19,11.10
2012,05,26,01,20,11.00
2012,05,26,01,21,10.90
2012,05,26,01,22,10.90
2012,05,26,01,23,10.90
2012,05,26,01,24,10.90
2012,05,26,01,25,10.90
2012,05,26,01,26,10.80
2012,05,26,01,27,10.80
2012,05,26,01,28,10.80
2012,05,26,01,29,10.80
2012,05,26,01,30,10.70
2012,05,26,01,31,10.70
2012,05,26,01,32,10.70
2012,05,26,01,33,10.60
2012,05,26,01,34,10.60
2012,05,26,01,35,10.60
2012,05,26,01,36,10.60
2012,05,26,01,37,10.50
2012,05,26,01,38,10.40
2012,05,26,01,39,10.40
2012,05,26,01,40,10.40
2012,05,26,01,41,10.40
2012,05,26,01,42,10.40
2012,05,26,01,43,10.40
2012,05,26,01,44,10.30
2012,05,26,01,45,10.30
2012,05,26,01,46,10.30
2012,05,26,01,47,10.30
2012,05,26,01,48,10.30
2012,05,26,01,49,10.30
2012,05,26,01,50,10.20
2012,05,26,01,51,10.20
2012,05,26,01,52,10.20
2012,05,26,01,53,10.20
2012,05,26,01,54,10.10
2012,05,26,01,55,10.10
2012,05,26,01,56,10.10
2012,05,26,01,57,10.10
2012,05,26,01,58,10.10
2012,05,26,01,59,10.00
2012,05,26,02,00,9.90
2012,05,26,02,01,9.90
2012,05,26,02,02,9.90
2012,05,26,02,03,9.90
2012,05,26,02,04,9.90
2012,05,26,02,05,9.90
2012,05,26,02,06,9.90
2012,05,26,02,07,9.90
2012,05,26,02,08,9.90
2012,05,26,02,09,9.90
2012,05,26,02,10,9.90
2012,05,26,02,11,9.90
2012,05,26,02,12,9.90
2012,05,26,02,13,9.90
2012,05,26,02,14,9.90
2012,05,26,02,15,9.90
2012,05,26,02,16,9.90
2012,05,26,02,17,9.90
2012,05,26,02,18,9.90
2012,05,26,02,19,9.90
2012,05,26,02,20,9.90
2012,05,26,02,21,9.80
2012,05,26,02,22,9.80
2012,05,26,02,23,9.80
2012,05,26,02,24,9.80
2012,05,26,02,25,9.80
2012,05,26,02,26,9.80
2012,05,26,02,27,9.80
2012,05,26,02,28,9.80
2012,05,26,02,29,9.80
2012,05,26,02,30,9.70
2012,05,26,02,31,9.70
2012,05,26,02,32,9.70
2012,05,26,02,33,9.70
2012,05,26,02,34,9.70
2012,05,26,02,35,9.60
2012,05,26,02,36,9.60
2012,05,26,02,37,9.50
2012,05,26,02,38,9.50
2012,05,26,02,39,9.50
2012,05,26,02,40,9.40
2012,05,26,02,41,9.40
2012,05,26,02,42,9.40
2012,05,26,02,43,9.40
2012,05,26,02,44,9.30
2012,05,26,02,45,9.30
2012,05,26,02,46,9.30
2012,05,26,02,47,9.30
2012,05,26,02,48,9.30
2012,05,26,02,49,9.30
2012,05,26,02,50,9.40
2012,05,26,02,51,9.40
2012,05,26,02,52,9.40
2012,05,26,02,53,9.40
2012,05,26,02,54,9.40
2012,05,26,02,55,9.40
2012,05,26,02,56,9.40
2012,05,26,02,57,9.40
2012,05,26,02,58,9.30
2012,05,26,02,59,9.30
2012,05,26,03,00,9.30
2012,05,26,03,01,9.30
2012,05,26,03,02,9.20
2012,05,26,03,03,9.20
2012,05,26,03,04,9.20
2012,05,26,03,05,9.20
2012,05,26,03,06,9.20
2012,05,26,03,07,9.20
2012,05,26,03,08,9.20
2012,05,26,03,09,9.20
2012,05,26,03,10,9.20
2012,05,26,03,11,9.20
2012,05,26,03,12,9.20
2012,05,26,03,13,9.20
2012,05,26,03,14,9.20
2012,05,26,03,15,9.20
2012,05,26,03,16,9.20
2012,05,26,03,17,9.10
2012,05,26,03,18,9.10
2012,05,26,03,19,9.10
2012,05,26,03,20,9.10
2012,05,26,03,21,9.10
2012,05,26,03,22,9.10
2012,05,26,03,23,9.00
2012,05,26,03,24,9.00
2012,05,26,03,25,9.00
2012,05,26,03,26,9.00
2012,05,26,03,27,9.00
2012,05,26,03,28,9.00
2012,05,26,03,29,8.90
2012,05,26,03,30,8.90
2012,05,26,03,31,8.90
2012,05,26,03,32,8.90
2012,05,26,03,33,8.90
2012,05,26,03,34,8.90
2012,05,26,03,35,8.80
2012,05,26,03,36,8.80
2012,05,26,03,37,8.80
2012,05,26,03,38,8.80
2012,05,26,03,39,8.80
2012,05,26,03,40,8.70
2012,05,26,03,41,8.70
2012,05,26,03,42,8.70
2012,05,26,03,43,8.70
2012,05,26,03,44,8.70
2012,05,26,03,45,8.70
2012,05,26,03,46,8.70
2012,05,26,03,47,8.70
2012,05,26,03,48,8.70
2012,05,26,03,49,8.70
2012,05,26,03,50,8.70
2012,05,26,03,51,8.70
2012,05,26,03,52,8.70
2012,05,26,03,53,8.70
2012,05,26,03,54,8.70
2012,05,26,03,55,8.70
2012,05,26,03,56,8.70
2012,05,26,03,57,8.70
2012,05,26,03,58,8.60
2012,05,26,03,59,8.60
2012,05,26,04,00,8.60
2012,05,26,04,01,8.60
2012,05,26,04,02,8.50
2012,05,26,04,03,8.50
2012,05,26,04,04,8.50
2012,05,26,04,05,8.40
2012,05,26,04,06,8.40
2012,05,26,04,07,8.30
2012,05,26,04,08,8.30
2012,05,26,04,09,8.30
2012,05,26,04,10,8.30
2012,05,26,04,11,8.30
2012,05,26,04,12,8.30
2012,05,26,04,13,8.30
2012,05,26,04,14,8.30
2012,05,26,04,15,8.30
2012,05,26,04,16,8.20
2012,05,26,04,17,8.20
2012,05,26,04,18,8.20
2012,05,26,04,19,8.20
2012,05,26,04,20,8.20
2012,05,26,04,21,8.10
2012,05,26,04,22,8.10
2012,05,26,04,23,8.10
2012,05,26,04,24,8.10
2012,05,26,04,25,8.00
2012,05,26,04,26,8.00
2012,05,26,04,27,8.00
2012,05,26,04,28,8.00
2012,05,26,04,29,8.00
2012,05,26,04,30,8.00
2012,05,26,04,31,8.00
2012,05,26,04,32,8.00
2012,05,26,04,33,7.90
2012,05,26,04,34,7.90
2012,05,26,04,35,7.90
2012,05,26,04,36,7.90
2012,05,26,04,37,7.90
2012,05,26,04,38,7.90
2012,05,26,04,39,7.90
2012,05,26,04,40,7.90
2012,05,26,04,41,7.90
2012,05,26,04,42,7.80
2012,05,26,04,43,7.80
2012,05,26,04,44,7.80
2012,05,26,04,45,7.80
2012,05,26,04,46,7.80
2012,05,26,04,47,7.80
2012,05,26,04,48,7.80
2012,05,26,04,49,7.80
2012,05,26,04,50,7.80
2012,05,26,04,51,7.80
2012,05,26,04,52,7.80
2012,05,26,04,53,7.80
2012,05,26,04,54,7.80
2012,05,26,04,55,7.80
2012,05,26,04,56,7.80
2012,05,26,04,57,7.70
2012,05,26,04,58,7.70
2012,05,26,04,59,7.70
2012,05,26,05,00,7.70
2012,05,26,05,01,7.60
2012,05,26,05,02,7.60
2012,05,26,05,03,7.60
2012,05,26,05,04,7.60
2012,05,26,05,05,7.60
2012,05,26,05,06,7.60
2012,05,26,05,07,7.60
2012,05,26,05,08,7.60
2012,05,26,05,09,7.60
2012,05,26,05,10,7.60
2012,05,26,05,11,7.60
2012,05,26,05,12,7.60
2012,05,26,05,13,7.60
2012,05,26,05,14,7.60
2012,05,26,05,15,7.60
2012,05,26,05,16,7.60
2012,05,26,05,17,7.60
2012,05,26,05,18,7.50
2012,05,26,05,19,7.50
2012,05,26,05,20,7.50
2012,05,26,05,21,7.50
2012,05,26,05,22,7.50
2012,05,26,05,23,7.40
2012,05,26,05,24,7.40
2012,05,26,05,25,7.40
2012,05,26,05,26,7.40
2012,05,26,05,27,7.40
2012,05,26,05,28,7.40
2012,05,26,05,29,7.40
2012,05,26,05,30,7.30
2012,05,26,05,31,7.30
2012,05,26,05,32,7.30
2012,05,26,05,33,7.30
2012,05,26,05,34,7.30
2012,05,26,05,35,7.30
2012,05,26,05,36,7.30
2012,05,26,05,37,7.30
2012,05,26,05,38,7.30
2012,05,26,05,39,7.30
2012,05,26,05,40,7.30
2012,05,26,05,41,7.30
2012,05,26,05,42,7.30
2012,05,26,05,43,7.30
2012,05,26,05,44,7.30
2012,05,26,05,45,7.40
2012,05,26,05,46,7.40
2012,05,26,05,47,7.40
2012,05,26,05,48,7.40
2012,05,26,05,49,7.40
2012,05,26,05,50,7.30
2012,05,26,05,51,7.30
2012,05,26,05,52,7.30
2012,05,26,05,53,7.30
2012,05,26,05,54,7.30
2012,05,26,05,55,7.30
2012,05,26,05,56,7.30
2012,05,26,05,57,7.30
2012,05,26,05,58,7.30
2012,05,26,05,59,7.30
2012,05,26,06,00,7.30
2012,05,26,06,01,7.30
2012,05,26,06,02,7.30
2012,05,26,06,03,7.40
2012,05,26,06,04,7.40
2012,05,26,06,05,7.50
2012,05,26,06,06,7.50
2012,05,26,06,07,7.60
2012,05,26,06,08,7.70
2012,05,26,06,09,7.70
2012,05,26,06,10,7.80
2012,05,26,06,11,7.80
2012,05,26,06,12,7.90
2012,05,26,06,13,7.90
2012,05,26,06,14,8.00
2012,05,26,06,15,8.10
2012,05,26,06,16,8.10
2012,05,26,06,17,8.20
2012,05,26,06,18,8.20
2012,05,26,06,19,8.30
2012,05,26,06,20,8.40
2012,05,26,06,21,8.40
2012,05,26,06,22,8.50
2012,05,26,06,23,8.50
2012,05,26,06,24,8.60
2012,05,26,06,25,8.60
2012,05,26,06,26,8.70
2012,05,26,06,27,8.70
2012,05,26,06,28,8.80
2012,05,26,06,29,8.90
2012,05,26,06,30,8.90
2012,05,26,06,31,9.00
2012,05,26,06,32,9.10
2012,05,26,06,33,9.10
2012,05,26,06,34,9.20
2012,05,26,06,35,9.20
2012,05,26,06,36,9.40
2012,05,26,06,37,9.50
2012,05,26,06,38,9.50
2012,05,26,06,39,9.70
2012,05,26,06,40,9.70
2012,05,26,06,41,9.80
2012,05,26,06,42,9.80
2012,05,26,06,43,9.90
2012,05,26,06,44,9.90
2012,05,26,06,45,10.00
2012,05,26,06,46,10.10
2012,05,26,06,47,10.10
2012,05,26,06,48,10.20
2012,05,26,06,49,10.20
2012,05,26,06,50,10.30
2012,05,26,06,51,10.40
2012,05,26,06,52,10.50
2012,05,26,06,53,10.60
2012,05,26,06,54,10.80
2012,05,26,06,55,10.90
2012,05,26,06,56,10.90
2012,05,26,06,57,11.10
2012,05,26,06,58,11.20
2012,05,26,06,59,11.30
2012,05,26,07,00,11.40
2012,05,26,07,01,11.40
2012,05,26,07,02,11.50
2012,05,26,07,03,11.60
2012,05,26,07,04,11.80
2012,05,26,07,05,11.80
2012,05,26,07,06,11.90
2012,05,26,07,07,12.00
2012,05,26,07,08,12.10
2012,05,26,07,09,12.20
2012,05,26,07,10,12.30
2012,05,26,07,11,12.50
2012,05,26,07,12,12.60
2012,05,26,07,13,12.70
2012,05,26,07,14,12.80
2012,05,26,07,15,12.90
2012,05,26,07,16,13.10
2012,05,26,07,17,13.10
2012,05,26,07,18,13.20
2012,05,26,07,19,13.30
2012,05,26,07,20,13.30
2012,05,26,07,21,13.40
2012,05,26,07,22,13.50
2012,05,26,07,23,13.60
2012,05,26,07,24,13.60
2012,05,26,07,25,13.70
2012,05,26,07,26,13.70
2012,05,26,07,27,13.70
2012,05,26,07,28,13.80
2012,05,26,07,29,13.90
2012,05,26,07,30,14.00
2012,05,26,07,31,14.10
2012,05,26,07,32,14.10
2012,05,26,07,33,14.20
2012,05,26,07,34,14.20
2012,05,26,07,35,14.20
2012,05,26,07,36,14.20
2012,05,26,07,37,14.30
2012,05,26,07,38,14.50
2012,05,26,07,39,14.60
2012,05,26,07,40,14.70
2012,05,26,07,41,14.80
2012,05,26,07,42,14.90
2012,05,26,07,43,14.90
2012,05,26,07,44,14.90
2012,05,26,07,45,14.90
2012,05,26,07,46,14.90
2012,05,26,07,47,15.00
2012,05,26,07,48,15.00
2012,05,26,07,49,15.00
2012,05,26,07,50,15.10
2012,05,26,07,51,15.20
2012,05,26,07,52,15.20
2012,05,26,07,53,15.20
2012,05,26,07,54,15.20
2012,05,26,07,55,15.30
2012,05,26,07,56,15.30
2012,05,26,07,57,15.30
2012,05,26,07,58,15.30
2012,05,26,07,59,15.30
2012,05,26,08,00,15.30
2012,05,26,08,01,15.30
2012,05,26,08,02,15.30
2012,05,26,08,03,15.30
2012,05,26,08,04,15.40
2012,05,26,08,05,15.50
2012,05,26,08,06,15.50
2012,05,26,08,07,15.50
2012,05,26,08,08,15.50
2012,05,26,08,09,15.60
2012,05,26,08,10,15.60
2012,05,26,08,11,15.70
2012,05,26,08,12,15.80
2012,05,26,08,13,15.80
2012,05,26,08,14,15.80
2012,05,26,08,15,15.90
2012,05,26,08,16,16.00
2012,05,26,08,17,16.10
2012,05,26,08,18,16.10
2012,05,26,08,19,16.20
2012,05,26,08,20,16.20
2012,05,26,08,21,16.40
2012,05,26,08,22,16.50
2012,05,26,08,23,16.60
2012,05,26,08,24,16.70
2012,05,26,08,25,16.70
2012,05,26,08,26,16.80
2012,05,26,08,27,16.90
2012,05,26,08,28,16.90
2012,05,26,08,29,17.00
2012,05,26,08,30,17.20
2012,05,26,08,31,17.20
2012,05,26,08,32,17.30
2012,05,26,08,33,17.40
2012,05,26,08,34,17.40
2012,05,26,08,35,17.50
2012,05,26,08,36,17.50
2012,05,26,08,37,17.50
2012,05,26,08,38,17.50
2012,05,26,08,39,17.50
2012,05,26,08,40,17.40
2012,05,26,08,41,17.30
2012,05,26,08,42,17.30
2012,05,26,08,43,17.30
2012,05,26,08,44,17.30
2012,05,26,08,45,17.40
2012,05,26,08,46,17.40
2012,05,26,08,47,17.50
2012,05,26,08,48,17.50
2012,05,26,08,49,17.60
2012,05,26,08,50,17.70
2012,05,26,08,51,17.70
2012,05,26,08,52,17.80
2012,05,26,08,53,17.80
2012,05,26,08,54,17.80
2012,05,26,08,55,17.80
2012,05,26,08,56,17.80
2012,05,26,08,57,17.80
2012,05,26,08,58,17.90
2012,05,26,08,59,17.90
2012,05,26,09,00,17.90
2012,05,26,09,01,17.90
2012,05,26,09,02,17.90
2012,05,26,09,03,17.90
2012,05,26,09,04,17.90
2012,05,26,09,05,17.90
2012,05,26,09,06,17.90
2012,05,26,09,07,17.90
2012,05,26,09,08,17.90
2012,05,26,09,09,17.90
2012,05,26,09,10,17.90
2012,05,26,09,11,17.90
2012,05,26,09,12,17.90
2012,05,26,09,13,17.90
2012,05,26,09,14,17.90
2012,05,26,09,15,17.90
2012,05,26,09,16,17.90
2012,05,26,09,17,17.80
2012,05,26,09,18,17.90
2012,05,26,09,19,17.90
2012,05,26,09,20,18.00
2012,05,26,09,21,18.00
2012,05,26,09,22,18.10
2012,05,26,09,23,18.10
2012,05,26,09,24,18.10
2012,05,26,09,25,18.10
2012,05,26,09,26,18.00
2012,05,26,09,27,18.10
2012,05,26,09,28,18.10
2012,05,26,09,29,18.10
2012,05,26,09,30,18.10
2012,05,26,09,31,18.10
2012,05,26,09,32,18.00
2012,05,26,09,33,17.80
2012,05,26,09,34,17.60
2012,05,26,09,35,17.50
2012,05,26,09,36,17.30
2012,05,26,09,37,17.30
2012,05,26,09,38,17.40
2012,05,26,09,39,17.60
2012,05,26,09,40,17.70
2012,05,26,09,41,17.80
2012,05,26,09,42,17.80
2012,05,26,09,43,17.90
2012,05,26,09,44,18.00
2012,05,26,09,45,18.20
2012,05,26,09,46,18.20
2012,05,26,09,47,18.30
2012,05,26,09,48,18.50
2012,05,26,09,49,18.50
2012,05,26,09,50,18.50
2012,05,26,09,51,18.50
2012,05,26,09,52,18.50
2012,05,26,09,53,18.50
2012,05,26,09,54,18.60
2012,05,26,09,55,18.60
2012,05,26,09,56,18.50
2012,05,26,09,57,18.50
2012,05,26,09,58,18.50
2012,05,26,09,59,18.40
2012,05,26,10,00,18.40
2012,05,26,10,01,18.40
2012,05,26,10,02,18.50
2012,05,26,10,03,18.60
2012,05,26,10,04,18.60
2012,05,26,10,05,18.80
2012,05,26,10,06,19.00
2012,05,26,10,07,19.10
2012,05,26,10,08,19.20
2012,05,26,10,09,19.20
2012,05,26,10,10,19.20
2012,05,26,10,11,19.20
2012,05,26,10,12,19.20
2012,05,26,10,13,19.20
2012,05,26,10,14,19.10
2012,05,26,10,15,19.10
2012,05,26,10,16,19.10
2012,05,26,10,17,19.10
2012,05,26,10,18,19.00
2012,05,26,10,19,18.90
2012,05,26,10,20,18.80
2012,05,26,10,21,18.70
2012,05,26,10,22,18.70
2012,05,26,10,23,18.70
2012,05,26,10,24,18.70
2012,05,26,10,25,18.70
2012,05,26,10,26,18.70
2012,05,26,10,27,18.70
2012,05,26,10,28,18.80
2012,05,26,10,29,18.80
2012,05,26,10,30,18.80
2012,05,26,10,31,18.90
2012,05,26,10,32,18.90
2012,05,26,10,33,18.90
2012,05,26,10,34,18.90
2012,05,26,10,35,19.00
2012,05,26,10,36,19.00
2012,05,26,10,37,19.10
2012,05,26,10,38,19.10
2012,05,26,10,39,19.10
2012,05,26,10,40,19.10
2012,05,26,10,41,19.10
2012,05,26,10,42,19.20
2012,05,26,10,43,19.20
2012,05,26,10,44,19.30
2012,05,26,10,45,19.40
2012,05,26,10,46,19.20
2012,05,26,10,47,19.00
2012,05,26,10,48,18.90
2012,05,26,10,49,18.90
2012,05,26,10,50,18.90
2012,05,26,10,51,18.80
2012,05,26,10,52,18.70
2012,05,26,10,53,18.70
2012,05,26,10,54,18.70
2012,05,26,10,55,18.90
2012,05,26,10,56,18.90
2012,05,26,10,57,19.10
2012,05,26,10,58,19.20
2012,05,26,10,59,19.30
2012,05,26,11,00,19.50
2012,05,26,11,01,19.50
2012,05,26,11,02,19.60
2012,05,26,11,03,19.60
2012,05,26,11,04,19.60
2012,05,26,11,05,19.60
2012,05,26,11,06,19.70
2012,05,26,11,07,19.80
2012,05,26,11,08,19.80
2012,05,26,11,09,19.90
2012,05,26,11,10,19.90
2012,05,26,11,11,19.90
2012,05,26,11,12,19.90
2012,05,26,11,13,20.00
2012,05,26,11,14,20.20
2012,05,26,11,15,20.30
2012,05,26,11,16,20.30
2012,05,26,11,17,20.20
2012,05,26,11,18,20.20
2012,05,26,11,19,20.00
2012,05,26,11,20,19.80
2012,05,26,11,21,19.60
2012,05,26,11,22,19.50
2012,05,26,11,23,19.40
2012,05,26,11,24,19.40
2012,05,26,11,25,19.50
2012,05,26,11,26,19.60
2012,05,26,11,27,19.70
2012,05,26,11,28,19.80
2012,05,26,11,29,19.80
2012,05,26,11,30,19.80
2012,05,26,11,31,19.60
2012,05,26,11,32,19.30
2012,05,26,11,33,19.10
2012,05,26,11,34,19.10
2012,05,26,11,35,19.10
2012,05,26,11,36,19.10
2012,05,26,11,37,19.10
2012,05,26,11,38,18.90
2012,05,26,11,39,18.70
2012,05,26,11,40,18.70
2012,05,26,11,41,18.60
2012,05,26,11,42,18.40
2012,05,26,11,43,18.30
2012,05,26,11,44,18.30
2012,05,26,11,45,18.40
2012,05,26,11,46,18.40
2012,05,26,11,47,18.50
2012,05,26,11,48,18.60
2012,05,26,11,49,18.70
2012,05,26,11,50,18.70
2012,05,26,11,51,18.90
2012,05,26,11,52,18.90
2012,05,26,11,53,18.90
2012,05,26,11,54,18.70
2012,05,26,11,55,18.70
2012,05,26,11,56,18.60
2012,05,26,11,57,18.50
2012,05,26,11,58,18.60
2012,05,26,11,59,18.70
2012,05,26,12,00,18.70
2012,05,26,12,01,18.80
2012,05,26,12,02,18.80
2012,05,26,12,03,18.70
2012,05,26,12,04,18.70
2012,05,26,12,05,18.60
2012,05,26,12,06,18.60
2012,05,26,12,07,18.70
2012,05,26,12,08,18.80
2012,05,26,12,09,18.90
2012,05,26,12,10,18.90
2012,05,26,12,11,18.90
2012,05,26,12,12,18.80
2012,05,26,12,13,18.70
2012,05,26,12,14,18.70
2012,05,26,12,15,18.80
2012,05,26,12,16,18.80
2012,05,26,12,17,18.90
2012,05,26,12,18,19.10
2012,05,26,12,19,19.30
2012,05,26,12,20,19.40
2012,05,26,12,21,19.60
2012,05,26,12,22,19.70
2012,05,26,12,23,19.90
2012,05,26,12,24,19.90
2012,05,26,12,25,20.00
2012,05,26,12,26,20.10
2012,05,26,12,27,20.20
2012,05,26,12,28,20.30
2012,05,26,12,29,20.30
2012,05,26,12,30,20.30
2012,05,26,12,31,20.20
2012,05,26,12,32,20.20
2012,05,26,12,33,20.10
2012,05,26,12,34,20.00
2012,05,26,12,35,19.90
2012,05,26,12,36,19.90
2012,05,26,12,37,19.90
2012,05,26,12,38,19.90
2012,05,26,12,39,19.90
2012,05,26,12,40,19.90
2012,05,26,12,41,19.90
2012,05,26,12,42,20.00
2012,05,26,12,43,20.10
2012,05,26,12,44,20.20
2012,05,26,12,45,20.10
2012,05,26,12,46,20.10
2012,05,26,12,47,20.00
2012,05,26,12,48,19.90
2012,05,26,12,49,19.90
2012,05,26,12,50,19.90
2012,05,26,12,51,19.90
2012,05,26,12,52,19.90
2012,05,26,12,53,20.00
2012,05,26,12,54,20.10
2012,05,26,12,55,20.00
2012,05,26,12,56,19.90
2012,05,26,12,57,19.90
2012,05,26,12,58,19.90
2012,05,26,12,59,19.90
2012,05,26,13,00,19.70
2012,05,26,13,01,19.60
2012,05,26,13,02,19.60
2012,05,26,13,03,19.60
2012,05,26,13,04,19.70
2012,05,26,13,05,19.70
2012,05,26,13,06,19.60
2012,05,26,13,07,19.60
2012,05,26,13,08,19.50
2012,05,26,13,09,19.40
2012,05,26,13,10,19.20
2012,05,26,13,11,19.10
2012,05,26,13,12,19.10
2012,05,26,13,13,19.10
2012,05,26,13,14,19.10
2012,05,26,13,15,19.10
2012,05,26,13,16,19.10
2012,05,26,13,17,19.10
2012,05,26,13,18,19.10
2012,05,26,13,19,19.30
2012,05,26,13,20,19.40
2012,05,26,13,21,19.40
2012,05,26,13,22,19.50
2012,05,26,13,23,19.60
2012,05,26,13,24,19.60
2012,05,26,13,25,19.60
2012,05,26,13,26,19.70
2012,05,26,13,27,19.80
2012,05,26,13,28,19.80
2012,05,26,13,29,19.70
2012,05,26,13,30,19.50
2012,05,26,13,31,19.30
2012,05,26,13,32,19.10
2012,05,26,13,33,19.10
2012,05,26,13,34,19.10
2012,05,26,13,35,19.10
2012,05,26,13,36,19.00
2012,05,26,13,37,18.90
2012,05,26,13,38,18.80
2012,05,26,13,39,18.70
2012,05,26,13,40,18.70
2012,05,26,13,41,18.70
2012,05,26,13,42,18.80
2012,05,26,13,43,18.80
2012,05,26,13,44,18.90
2012,05,26,13,45,19.10
2012,05,26,13,46,19.20
2012,05,26,13,47,19.30
2012,05,26,13,48,19.30
2012,05,26,13,49,19.40
2012,05,26,13,50,19.30
2012,05,26,13,51,19.20
2012,05,26,13,52,19.10
2012,05,26,13,53,19.10
2012,05,26,13,54,19.10
2012,05,26,13,55,19.30
2012,05,26,13,56,19.40
2012,05,26,13,57,19.50
2012,05,26,13,58,19.40
2012,05,26,13,59,19.30
2012,05,26,14,00,19.40
2012,05,26,14,01,19.40
2012,05,26,14,02,19.40
2012,05,26,14,03,19.30
2012,05,26,14,04,19.40
2012,05,26,14,05,19.40
2012,05,26,14,06,19.40
2012,05,26,14,07,19.40
2012,05,26,14,08,19.50
2012,05,26,14,09,19.70
2012,05,26,14,10,19.70
2012,05,26,14,11,19.90
2012,05,26,14,12,20.00
2012,05,26,14,13,20.20
2012,05,26,14,14,20.20
2012,05,26,14,15,20.20
2012,05,26,14,16,20.20
2012,05,26,14,17,20.20
2012,05,26,14,18,20.20
2012,05,26,14,19,20.20
2012,05,26,14,20,20.20
2012,05,26,14,21,20.20
2012,05,26,14,22,20.20
2012,05,26,14,23,20.20
2012,05,26,14,24,20.20
2012,05,26,14,25,20.30
2012,05,26,14,26,20.30
2012,05,26,14,27,20.30
2012,05,26,14,28,20.30
2012,05,26,14,29,20.30
2012,05,26,14,30,20.40
2012,05,26,14,31,20.50
2012,05,26,14,32,20.50
2012,05,26,14,33,20.60
2012,05,26,14,34,20.70
2012,05,26,14,35,20.80
2012,05,26,14,36,21.00
2012,05,26,14,37,21.00
2012,05,26,14,38,21.10
2012,05,26,14,39,21.10
2012,05,26,14,40,21.00
2012,05,26,14,41,21.00
2012,05,26,14,42,20.80
2012,05,26,14,43,20.70
2012,05,26,14,44,20.50
2012,05,26,14,45,20.40
2012,05,26,14,46,20.30
2012,05,26,14,47,20.20
2012,05,26,14,48,20.20
2012,05,26,14,49,20.20
2012,05,26,14,50,20.20
2012,05,26,14,51,20.30
2012,05,26,14,52,20.20
2012,05,26,14,53,20.20
2012,05,26,14,54,20.30
2012,05,26,14,55,20.40
2012,05,26,14,56,20.40
2012,05,26,14,57,20.50
2012,05,26,14,58,20.60
2012,05,26,14,59,20.60
2012,05,26,15,00,20.60
2012,05,26,15,01,20.50
2012,05,26,15,02,20.40
2012,05,26,15,03,20.40
2012,05,26,15,04,20.40
2012,05,26,15,05,20.30
2012,05,26,15,06,20.20
2012,05,26,15,07,20.10
2012,05,26,15,08,20.10
2012,05,26,15,09,20.10
2012,05,26,15,10,20.00
2012,05,26,15,11,19.80
2012,05,26,15,12,19.60
2012,05,26,15,13,19.30
2012,05,26,15,14,19.10
2012,05,26,15,15,19.10
2012,05,26,15,16,18.90
2012,05,26,15,17,18.90
2012,05,26,15,18,19.00
2012,05,26,15,19,19.10
2012,05,26,15,20,19.10
2012,05,26,15,21,19.20
2012,05,26,15,22,19.20
2012,05,26,15,23,19.20
2012,05,26,15,24,19.20
2012,05,26,15,25,19.20
2012,05,26,15,26,19.10
2012,05,26,15,27,19.10
2012,05,26,15,28,19.10
2012,05,26,15,29,19.10
2012,05,26,15,30,19.10
2012,05,26,15,31,19.10
2012,05,26,15,32,19.10
2012,05,26,15,33,19.10
2012,05,26,15,34,19.20
2012,05,26,15,35,19.30
2012,05,26,15,36,19.50
2012,05,26,15,37,19.70
2012,05,26,15,38,19.90
2012,05,26,15,39,20.10
2012,05,26,15,40,20.10
2012,05,26,15,41,20.10
2012,05,26,15,42,20.20
2012,05,26,15,43,20.30
2012,05,26,15,44,20.50
2012,05,26,15,45,20.60
2012,05,26,15,46,20.70
2012,05,26,15,47,20.80
2012,05,26,15,48,20.90
2012,05,26,15,49,20.90
2012,05,26,15,50,20.80
2012,05,26,15,51,20.80
2012,05,26,15,52,20.80
2012,05,26,15,53,20.80
2012,05,26,15,54,20.80
2012,05,26,15,55,20.90
2012,05,26,15,56,20.90
2012,05,26,15,57,20.80
2012,05,26,15,58,20.70
2012,05,26,15,59,20.60
2012,05,26,16,00,20.60
2012,05,26,16,01,20.50
2012,05,26,16,02,20.50
2012,05,26,16,03,20.50
2012,05,26,16,04,20.50
2012,05,26,16,05,20.50
2012,05,26,16,06,20.60
2012,05,26,16,07,20.60
2012,05,26,16,08,20.60
2012,05,26,16,09,20.60
2012,05,26,16,10,20.60
2012,05,26,16,11,20.70
2012,05,26,16,12,20.70
2012,05,26,16,13,20.70
2012,05,26,16,14,20.70
2012,05,26,16,15,20.60
2012,05,26,16,16,20.50
2012,05,26,16,17,20.50
2012,05,26,16,18,20.50
2012,05,26,16,19,20.60
2012,05,26,16,20,20.50
2012,05,26,16,21,20.40
2012,05,26,16,22,20.30
2012,05,26,16,23,20.20
2012,05,26,16,24,20.20
2012,05,26,16,25,20.20
2012,05,26,16,26,20.20
2012,05,26,16,27,20.20
2012,05,26,16,28,20.30
2012,05,26,16,29,20.30
2012,05,26,16,30,20.40
2012,05,26,16,31,20.40
2012,05,26,16,32,20.50
2012,05,26,16,33,20.60
2012,05,26,16,34,20.60
2012,05,26,16,35,20.60
2012,05,26,16,36,20.70
2012,05,26,16,37,20.80
2012,05,26,16,38,20.80
2012,05,26,16,39,20.90
2012,05,26,16,40,21.00
2012,05,26,16,41,21.00
2012,05,26,16,42,21.10
2012,05,26,16,43,21.20
2012,05,26,16,44,21.30
2012,05,26,16,45,21.30
2012,05,26,16,46,21.30
2012,05,26,16,47,21.40
2012,05,26,16,48,21.40
2012,05,26,16,49,21.40
2012,05,26,16,50,21.30
2012,05,26,16,51,21.30
2012,05,26,16,52,21.30
2012,05,26,16,53,21.30
2012,05,26,16,54,21.30
2012,05,26,16,55,21.40
2012,05,26,16,56,21.50
2012,05,26,16,57,21.60
2012,05,26,16,58,21.70
2012,05,26,16,59,21.90
2012,05,26,17,00,21.90
2012,05,26,17,01,22.00
2012,05,26,17,02,22.10
2012,05,26,17,03,22.20
2012,05,26,17,04,22.30
2012,05,26,17,05,22.30
2012,05,26,17,06,22.40
2012,05,26,17,07,22.40
2012,05,26,17,08,22.50
2012,05,26,17,09,22.60
2012,05,26,17,10,22.70
2012,05,26,17,11,22.80
2012,05,26,17,12,22.90
2012,05,26,17,13,22.90
2012,05,26,17,14,23.00
2012,05,26,17,15,23.20
2012,05,26,17,16,23.30
2012,05,26,17,17,23.50
2012,05,26,17,18,23.70
2012,05,26,17,19,23.90
2012,05,26,17,20,24.20
2012,05,26,17,21,24.40
2012,05,26,17,22,24.60
2012,05,26,17,23,24.80
2012,05,26,17,24,24.90
2012,05,26,17,25,25.10
2012,05,26,17,26,25.20
2012,05,26,17,27,25.30
2012,05,26,17,28,25.40
2012,05,26,17,29,25.50
2012,05,26,17,30,25.50
2012,05,26,17,31,25.50